Notices

What's New in latest Release from April 7th, 2021:

- Updated Glossary, including Speed of Maximum Gust, and Total Hourly Precipitation

- Updated national and regional climate services offices contacts and prices information

- Addition of station inventory lists for 1981-2010, 1971-2000, and 1961-1990 Normals.

If you haven't already, please take our survey and provide feedback about our website: https://eccc.sondage-survey.ca/f/LanguageSelection.aspx?s=442ca660-fcf1-47c0-95a9-59707d6fd709

Hourly Data Report for October 07, 2019

CARBERRY CS
MANITOBA
Current Station Operator: ECCC - MSC

49°54'20.900" N
99°21'26.800" W
383.50 m
5010547
71170
WZE

Download Data

Hourly Data (October 2019)
Hourly Data Report for October 7, 2019
TIME
LST
Temp Definition
°C
Dew Point Definition
°C
Rel Hum Definition
%
Precip. Amount Definition
mm

Wind Dir Definition
10's deg

Wind Spd Definition
km/h
Visibility Definition
km
Stn Press Definition
kPa
Hmdx Definition


Wind Chill Definition


Weather Definition


00:00 3.8 1.0 82 0.0 25 11   96.83     LegendNANA
01:00 2.7 1.0 89 0.0 26 13   96.83     LegendNANA
02:00 2.7 1.0 88 0.0 25 13   96.85     LegendNANA
03:00 2.6 1.0 90 0.0 24 11   96.87     LegendNANA
04:00 2.6 1.0 89 0.0 24 10   96.88     LegendNANA
05:00 1.8 0.4 91 0.0 22 9   96.89     LegendNANA
06:00 0.7 0.2 96 0.0 22 7   96.87     LegendNANA
07:00 1.1 1.0 100 0.0 20 11   96.83     LegendNANA
08:00 4.0 2.3 89 0.0 21 7   96.82     LegendNANA
09:00 7.4 2.8 72 0.0 21 10   96.77     LegendNANA
10:00 10.3 3.4 62 0.0 21 13   96.74     LegendNANA
11:00 13.3 3.9 53 0.0 22 15   96.66     LegendNANA
12:00 15.6 3.6 45 0.0 21 18   96.58     LegendNANA
13:00 17.1 3.3 40 0.0 22 22   96.46     LegendNANA
14:00 18.0 2.5 35 0.0 23 27   96.38     LegendNANA
15:00 18.2 3.3 37 0.0 22 23   96.30     LegendNANA
16:00 18.5 2.9 35 0.0 21 21   96.21     LegendNANA
17:00 17.8 2.7 36 0.0 19 15   96.15     LegendNANA
18:00 14.5 3.1 46 0.0 17 11   96.09     LegendNANA
19:00 12.6 3.6 54 0.0 15 11   96.03     LegendNANA
20:00 11.0 3.8 61 0.0 15 15   95.95     LegendNANA
21:00 12.3 4.1 57 0.0 17 20   95.86     LegendNANA
22:00 11.5 4.2 61 0.0 17 20   95.77     LegendNANA
23:00 11.0 3.9 62 0.0 18 20   95.71     LegendNANA

Notes on Data Quality.

Legend

  • E = Estimated
  • M = Missing
  • NA = Not Available*
  • [empty] = Indicates an unobserved value
Date modified: